Torna al catalogo

QIANFAN-5

AttivoComunicazioniPO
NORAD 60383·PAYLOAD·🇨🇳 China

Lanciato Aug 6, 2024 da Taiyuan Satellite Launch Center

Loading…

Prossimi Passaggi (prossime 24 ore)

TLE

AggiornatoSource: Space-Track

Epoca: Sep 14, 2026, 13:33 UTC

1 60383U 24140E   26257.56475422  .00000007  00000-0 -82294-5 0  9996
2 60383  88.9643 270.5828 0016827 129.5752 230.6888 13.51031181104540

Traccia QIANFAN-5 in tempo reale con AllMySat

Download on the App Store